Flag for Germany Weather past 2 weeks in Mörfelden-Walldorf, Hesse, Germany

Now
57 °F

Clear.


Feels Like: 57 °F
Forecast: 64 / 88 °F
Wind: 2 mph from Southwest

Location: Frankfurt-M-Flughafen Airport

Current Time: Jun 30, 2015 at 6:23:11 AM

Latest Report: Jun 30, 2015 at 5:50 AM


Visibility: 10 mi

Pressure: 30.15 "Hg

Humidity: 88%

Dew point: 54 °F

Location of Mörfelden-WalldorfLocation

Historic Weather in Mörfelden-Walldorf — Graph

°F

Mörfelden-Walldorf temperature yesterday

Maximum temperature yesterday: 84 °F (at 4:50 PM)
Minimum temperature yesterday: 57 °F (at 4:50 AM)
Average temperature yesterday: 71 °F

Past Weeks' High & Low Weather Summary

 TemperatureHumidityPressure
High84 °F (Jun 29, 4:50 PM)100% (Jun 18, 8:20 AM)30.27 "Hg (Jun 18, 8:20 AM)
Low48 °F (Jun 23, 4:50 AM)20% (Jun 17, 2:50 PM)29.68 "Hg (Jun 22, 10:50 PM)
Average62 °F68%30.08 "Hg
* Reported Jun 15 5:20 AM — Jun 30 5:20 AM, Mörfelden-Walldorf, Weather by CustomWeather, © 2015

Note: Actual official high and low records may vary slightly from our data, if they occured in-between our weather recording intervals... More about our weather records

Advertising

Mörfelden-Walldorf weather history for previous 24 hours

 ConditionsComfort  
Time TempWeatherWind HumidityBarometerVisibility
5:20 AM
Tue, Jun 30
57 °FClear.1 mph88%30.15 "Hg10 mi
4:50 AM59 °FClear.2 mph82%30.15 "Hg10 mi
4:20 AM59 °FClear.2 mph82%30.15 "Hg10 mi
3:50 AM59 °FClear.6 mph82%30.15 "Hg10 mi
3:20 AM59 °FClear.7 mph82%30.15 "Hg10 mi
2:50 AM61 °FClear.7 mph77%30.15 "Hg10 mi
2:20 AM61 °FClear.7 mph77%30.15 "Hg10 mi
1:50 AM61 °FClear.8 mph83%30.15 "Hg10 mi
1:20 AM63 °FClear.7 mph73%30.15 "Hg10 mi
12:50 AM63 °FClear.7 mph77%30.18 "Hg10 mi
12:20 AM64 °FPassing clouds.3 mph73%30.18 "HgN/A
11:20 PM
Mon, Jun 29
68 °FClear.3 mph60%30.15 "Hg10 mi
10:50 PM72 °FPassing clouds.5 mph50%30.15 "HgN/A
10:20 PM72 °FSunny.5 mph50%30.15 "Hg10 mi
9:50 PM75 °FPassing clouds.7 mph41%30.15 "HgN/A
9:20 PM75 °FSunny.8 mph47%30.12 "Hg10 mi
8:50 PM77 °FPassing clouds.9 mph44%30.12 "HgN/A
8:20 PM79 °FSunny.12 mph42%30.12 "Hg10 mi
7:50 PM79 °FPartly sunny.10 mph42%30.12 "HgN/A
7:20 PM79 °FPartly sunny.13 mph45%30.12 "HgN/A
6:50 PM81 °FPartly sunny.13 mph42%30.09 "HgN/A
6:20 PM81 °FBroken clouds.10 mph42%30.09 "HgN/A
5:50 PM82 °FBroken clouds.10 mph37%30.09 "HgN/A
5:20 PM82 °FBroken clouds.10 mph32%30.09 "HgN/A
4:50 PM84 °FPartly sunny.13 mph33%30.09 "HgN/A
4:20 PM82 °FPartly sunny.8 mph37%30.09 "HgN/A
3:50 PM82 °FPassing clouds.8 mph40%30.09 "HgN/A
3:20 PM81 °FPassing clouds.12 mph39%30.09 "HgN/A
2:50 PM82 °FPassing clouds.10 mph40%30.12 "HgN/A
2:20 PM79 °FPassing clouds.9 mph48%30.12 "HgN/A
1:50 PM79 °FPassing clouds.6 mph48%30.12 "HgN/A
1:20 PM79 °FPartly sunny.7 mph48%30.12 "HgN/A
12:50 PM77 °FPartly sunny.6 mph51%30.12 "HgN/A
12:20 PM75 °FPartly sunny.6 mph50%30.15 "HgN/A
11:50 AM73 °FPartly sunny.5 mph53%30.15 "HgN/A
11:20 AM72 °FBroken clouds.6 mph57%30.15 "HgN/A
10:50 AM72 °FBroken clouds.6 mph61%30.15 "HgN/A
10:20 AM70 °FPartly sunny.6 mph60%30.15 "HgN/A
9:50 AM68 °FPartly sunny.6 mph69%30.15 "HgN/A
9:20 AM68 °FPartly sunny.5 mph64%30.15 "HgN/A
8:50 AM66 °FPassing clouds.3 mph68%30.12 "HgN/A
8:20 AM66 °FSunny.2 mph68%30.12 "Hg10 mi
7:50 AM66 °FSunny.2 mph64%30.12 "Hg10 mi
7:20 AM63 °FSunny.2 mph77%30.12 "Hg10 mi
6:50 AM61 °FSunny.2 mph88%30.12 "Hg10 mi
6:20 AM59 °FSunny.2 mph94%30.12 "Hg10 mi
Weather by CustomWeather, © 2015

See weather overviewHow to use our weather pages